ONEWEB-0308 (49094 NORAD) Tracking and Keplerian Element Data

This shows tracking and keplerian element data for the satellite.

Feedback or suggestion? Click here.




ElementValue
Catalog49094
NameONEWEB-0308
Epoch Orbit561
Epoch Day262.16668981
Epoch Year2021
RAAN356.3418
Inclination87.3309
Eccentricity0.0020237
Argument of Perigee194.3812
Mean Anonmoly275.0907
Mean Motion15.2078802
Decay Rate-0.00822667
L11 49094U 21075V 21262.16668981 -.00822667 00000-0 -40206-1 0 9995
L22 49094 87.3309 356.3418 0020237 194.3812 275.0907 15.20788020 5615

Live tracking and technical data element details for ONEWEB-0308 (NORAD 49094). ONEWEB-0308 can be tracked NOW for your location showing map with azimuth and elevation plus other details from your city location.

Track the satellite on the map from your city or location and see movement details for azimuth, elevation, latitude, longitude, range, height, and movement on the map or in text.







IsCatalogInMostPopularTable: catalog: 49094, numindb: 4
Update: records affected: 1



GetName: 49094 ONEWEB-0308

Hit Count: updated at: Fri, 24 Sep 2021 19:16:33 GMT